DW9439 Weather Reports


Display with metric or nautical units.
time (UTC)temp
F
wind
direction
speed
MPH
gust
MPH
rain 1hr
in
rain 24hr
in
rain mn
in
humidity
%
barometer
mb
20260504213733 82 305 7.0 11.0 0.00 0.00 0.00 15 1007.5
20260504213425 82 301 6.0 11.0 0.00 0.00 0.00 15 1007.6
20260504213116 82 294 6.0 11.0 0.00 0.00 0.00 14 1007.6
20260504212817 82 279 5.0 12.0 0.00 0.00 0.00 15 1007.7
20260504212515 82 279 3.0 12.0 0.00 0.00 0.00 14 1007.8
20260504211758 82 277 5.0 12.0 0.00 0.00 0.00 14 1007.9
20260504211457 82 277 6.0 12.0 0.00 0.00 0.00 14 1008.0
20260504211201 82 276 5.0 12.0 0.00 0.00 0.00 14 1008.0
20260504210449 83 275 2.0 11.0 0.00 0.00 0.00 14 1007.9
20260504210137 83 275 3.0 11.0 0.00 0.00 0.00 14 1008.0
20260504205832 83 275 5.0 11.0 0.00 0.00 0.00 14 1007.9
20260504205525 83 275 6.0 11.0 0.00 0.00 0.00 14 1008.1
20260504204347 83 284 6.0 10.0 0.00 0.00 0.00 14 1008.1
20260504204043 83 284 5.0 9.0 0.00 0.00 0.00 14 1008.2
20260504203733 83 282 4.0 9.0 0.00 0.00 0.00 14 1008.2
20260504203008 83 281 2.0 8.0 0.00 0.00 0.00 14 1008.2
20260504202257 83 281 5.0 8.0 0.00 0.00 0.00 14 1008.5
20260504201533 83 281 3.0 9.0 0.00 0.00 0.00 14 1008.5
20260504201229 83 281 3.0 9.0 0.00 0.00 0.00 14 1008.4
20260504200916 83 281 4.0 9.0 0.00 0.00 0.00 14 1008.6
20260504200602 83 281 4.0 9.0 0.00 0.00 0.00 14 1008.7
20260504195400 82 281 2.0 8.0 0.00 0.00 0.00 15 1008.8
20260504195053 82 281 2.0 7.0 0.00 0.00 0.00 15 1008.8
20260504194750 82 281 4.0 9.0 0.00 0.00 0.00 15 1008.8
20260504194437 82 281 4.0 9.0 0.00 0.00 0.00 15 1008.9
20260504194127 82 281 4.0 9.0 0.00 0.00 0.00 15 1009.0
20260504193830 82 281 4.0 9.0 0.00 0.00 0.00 16 1009.1
20260504193523 81 281 5.0 9.0 0.00 0.00 0.00 15 1009.1
20260504193218 82 281 5.0 9.0 0.00 0.00 0.00 15 1009.1
20260504192908 82 281 5.0 9.0 0.00 0.00 0.00 16 1009.1
20260504192602 82 286 5.0 9.0 0.00 0.00 0.00 16 1009.2
20260504192300 82 286 4.0 9.0 0.00 0.00 0.00 16 1009.2
20260504191958 82 290 3.0 9.0 0.00 0.00 0.00 15 1009.2
20260504191659 82 290 2.0 9.0 0.00 0.00 0.00 15 1009.3
20260504191358 82 290 3.0 9.0 0.00 0.00 0.00 15 1009.3
20260504191047 82 292 3.0 9.0 0.00 0.00 0.00 15 1009.3
20260504190750 82 292 4.0 12.0 0.00 0.00 0.00 15 1009.3
20260504190449 82 292 4.0 12.0 0.00 0.00 0.00 15 1009.3
20260504190152 82 292 5.0 12.0 0.00 0.00 0.00 15 1009.3
20260504185840 82 292 6.0 12.0 0.00 0.00 0.00 15 1009.4
20260504185536 82 292 6.0 12.0 0.00 0.00 0.00 14 1009.4
20260504185234 82 292 6.0 12.0 0.00 0.00 0.00 15 1009.4
20260504184925 82 284 6.0 10.0 0.00 0.00 0.00 15 1009.5
20260504184619 82 284 6.0 10.0 0.00 0.00 0.00 15 1009.4
20260504184315 82 283 6.0 10.0 0.00 0.00 0.00 14 1009.5
20260504184019 83 281 6.0 15.0 0.00 0.00 0.00 15 1009.6
20260504183711 83 281 7.0 15.0 0.00 0.00 0.00 15 1009.6
20260504183415 83 281 8.0 15.0 0.00 0.00 0.00 14 1009.7
20260504183100 83 280 9.0 15.0 0.00 0.00 0.00 14 1009.7
20260504182747 84 262 9.0 15.0 0.00 0.00 0.00 14 1009.7
20260504182448 84 266 9.0 15.0 0.00 0.00 0.00 14 1009.8
20260504182138 85 261 7.0 14.0 0.00 0.00 0.00 13 1009.8
20260504181828 85 264 6.0 14.0 0.00 0.00 0.00 15 1010.0
20260504181520 84 283 6.0 14.0 0.00 0.00 0.00 16 1009.8
20260504181215 84 284 6.0 14.0 0.00 0.00 0.00 16 1010.0
20260504180909 84 284 6.0 14.0 0.00 0.00 0.00 14 1010.1
20260504180605 85 292 5.0 14.0 0.00 0.00 0.00 15 1010.1
20260504180254 85 284 4.0 10.0 0.00 0.00 0.00 15 1010.2
20260504175953 84 284 5.0 10.0 0.00 0.00 0.00 16 1010.2
20260504175229 84 279 5.0 12.0 0.00 0.00 0.00 15 1010.5
20260504174921 83 277 5.0 12.0 0.00 0.00 0.00 16 1010.5
20260504174613 83 277 5.0 12.0 0.00 0.00 0.00 16 1010.7
20260504173835 83 266 4.0 14.0 0.00 0.00 0.00 16 1010.7
20260504173528 83 266 7.0 14.0 0.00 0.00 0.00 16 1010.8
20260504173227 83 265 7.0 14.0 0.00 0.00 0.00 16 1010.8
20260504172919 83 265 7.0 14.0 0.00 0.00 0.00 16 1010.9
20260504172607 83 265 4.0 14.0 0.00 0.00 0.00 16 1010.9
20260504172256 82 271 3.0 11.0 0.00 0.00 0.00 17 1011.0
20260504171958 82 268 2.0 12.0 0.00 0.00 0.00 17 1011.0
20260504171655 82 284 3.0 12.0 0.00 0.00 0.00 16 1011.1
20260504170931 82 284 5.0 12.0 0.00 0.00 0.00 16 1011.1
20260504170623 82 280 4.0 12.0 0.00 0.00 0.00 16 1011.1
20260504160401 79 281 9.0 13.0 0.00 0.00 0.00 22 1011.4
20260504150634 73 284 9.0 13.0 0.00 0.00 0.00 32 1012.0
20260504150336 72 292 9.0 12.0 0.00 0.00 0.00 32 1011.9
20260504141114 64 309 7.0 11.0 0.00 0.00 0.00 46 1012.2
20260504140809 63 316 7.0 10.0 0.00 0.00 0.00 46 1012.2
20260504140457 63 320 7.0 10.0 0.00 0.00 0.00 46 1012.4
20260504140142 63 336 7.0 10.0 0.00 0.00 0.00 46 1012.4
20260504130722 47 28 4.0 6.0 0.00 0.00 0.00 79 1012.2
20260504130410 46 28 3.0 6.0 0.00 0.00 0.00 80 1012.3
20260504120131 40 28 2.0 6.0 0.00 0.00 0.00 83 1011.7
20260504110458 39 28 2.0 4.0 0.00 0.00 0.00 78 1011.6
20260504110150 40 28 2.0 4.0 0.00 0.00 0.00 78 1011.7
20260504081806 43 28 5.0 7.0 0.00 0.00 0.00 72 1013.2
20260504081041 43 28 4.0 7.0 0.00 0.00 0.00 72 1013.3
20260504080730 43 28 4.0 6.0 0.00 0.00 0.00 72 1013.2
20260504060141 49 28 1.0 4.0 0.00 0.00 0.00 59 1014.2
20260504050749 49 28 2.0 3.0 0.00 0.00 0.00 52 1014.2
20260504050446 49 28 1.0 3.0 0.00 0.00 0.00 51 1014.3
20260504050135 50 28 0.0 3.0 0.00 0.00 0.00 50 1014.3
20260504045823 50 28 0.0 1.0 0.00 0.00 0.00 49 1014.3
20260504045515 50 28 0.0 1.0 0.00 0.00 0.00 49 1014.2
20260504044739 51 28 0.0 1.0 0.00 0.00 0.00 48 1014.3
20260504044440 51 28 0.0 1.0 0.00 0.00 0.00 47 1014.2
20260504044142 51 28 0.0 1.0 0.00 0.00 0.00 47 1014.3
20260504043834 51 28 0.0 1.0 0.00 0.00 0.00 47 1014.3
20260504043534 51 28 0.0 1.0 0.00 0.00 0.00 46 1014.3
20260504043233 52 28 0.0 1.0 0.00 0.00 0.00 46 1014.3
20260504042926 52 28 0.0 1.0 0.00 0.00 0.00 45 1014.3
20260504042622 52 28 0.0 1.0 0.00 0.00 0.00 45 1014.3
20260504042324 52 28 0.0 1.0 0.00 0.00 0.00 45 1014.3
20260504042019 52 28 1.0 1.0 0.00 0.00 0.00 44 1014.3
20260504041708 52 28 1.0 3.0 0.00 0.00 0.00 44 1014.3
20260504041356 53 28 1.0 3.0 0.00 0.00 0.00 44 1014.3
20260504041055 53 28 1.0 3.0 0.00 0.00 0.00 44 1014.3
20260504040746 53 28 1.0 3.0 0.00 0.00 0.00 44 1014.4
20260504040023 53 28 1.0 3.0 0.00 0.00 0.00 44 1014.4
20260504035712 53 28 1.0 2.0 0.00 0.00 0.00 43 1014.3
20260504035359 53 28 0.0 1.0 0.00 0.00 0.00 43 1014.3
20260504035059 53 28 0.0 1.0 0.00 0.00 0.00 43 1014.3
20260504034803 53 28 0.0 1.0 0.00 0.00 0.00 42 1014.3
20260504033207 54 28 0.0 0.0 0.00 0.00 0.00 40 1014.4
20260504032909 54 28 0.0 0.0 0.00 0.00 0.00 39 1014.4
20260504032603 55 28 0.0 0.0 0.00 0.00 0.00 39 1014.4
20260504032304 56 28 0.0 1.0 0.00 0.00 0.00 38 1014.4
20260504032007 56 28 0.0 1.0 0.00 0.00 0.00 38 1014.4
20260504031700 57 28 0.0 3.0 0.00 0.00 0.00 37 1014.4
20260504031347 58 28 0.0 3.0 0.00 0.00 0.00 36 1014.4
20260504031035 58 28 0.0 3.0 0.00 0.00 0.00 36 1014.3
20260504030304 58 28 0.0 3.0 0.00 0.00 0.00 36 1014.3
20260504025953 58 28 0.0 3.0 0.00 0.00 0.00 36 1014.3
20260504025646 58 28 0.0 1.0 0.00 0.00 0.00 37 1014.2
20260504025335 58 28 0.0 1.0 0.00 0.00 0.00 37 1014.2
20260504025029 58 28 0.0 1.0 0.00 0.00 0.00 37 1014.2
20260504024724 58 28 0.0 1.0 0.00 0.00 0.00 37 1014.2
20260504024421 59 28 0.0 1.0 0.00 0.00 0.00 36 1014.2
20260504024125 59 28 0.0 1.0 0.00 0.00 0.00 36 1014.2
20260504023827 59 28 0.0 2.0 0.00 0.00 0.00 36 1014.1
20260504023521 59 28 0.0 2.0 0.00 0.00 0.00 36 1014.1
20260504022756 60 28 1.0 3.0 0.00 0.00 0.00 35 1014.1
20260504022452 60 28 1.0 3.0 0.00 0.00 0.00 35 1014.1
20260504022139 60 28 1.0 3.0 0.00 0.00 0.00 35 1014.0
20260504021418 61 28 1.0 3.0 0.00 0.00 0.00 34 1014.0
20260504021107 62 28 1.0 3.0 0.00 0.00 0.00 33 1014.0
20260504020333 63 28 2.0 3.0 0.00 0.00 0.00 32 1014.0
20260504020021 63 28 2.0 3.0 0.00 0.00 0.00 32 1013.9
20260504015725 63 28 2.0 3.0 0.00 0.00 0.00 31 1013.9
20260504015425 64 28 2.0 3.0 0.00 0.00 0.00 31 1013.9
20260504015117 64 28 1.0 3.0 0.00 0.00 0.00 30 1013.9
20260504014804 64 28 1.0 3.0 0.00 0.00 0.00 30 1013.9
20260504014027 65 28 1.0 3.0 0.00 0.00 0.00 29 1013.9
20260504013722 66 28 1.0 3.0 0.00 0.00 0.00 29 1013.9
20260504013412 66 28 1.0 3.0 0.00 0.00 0.00 28 1013.9
20260504012642 68 28 1.0 3.0 0.00 0.00 0.00 28 1013.9
20260504012344 68 28 1.0 3.0 0.00 0.00 0.00 27 1013.9
20260504011625 70 28 0.0 1.0 0.00 0.00 0.00 26 1014.0
20260504010847 71 28 1.0 2.0 0.00 0.00 0.00 25 1014.0
20260504010536 72 28 1.0 2.0 0.00 0.00 0.00 25 1014.0
20260504010235 72 28 1.0 2.0 0.00 0.00 0.00 24 1014.0
20260504005925 73 28 1.0 2.0 0.00 0.00 0.00 24 1014.0
20260504005612 74 28 1.0 2.0 0.00 0.00 0.00 23 1014.0
20260504005311 74 28 1.0 5.0 0.00 0.00 0.00 23 1014.0
20260504004958 75 28 1.0 5.0 0.00 0.00 0.00 22 1014.0
20260504004648 75 28 2.0 5.0 0.00 0.00 0.00 22 1014.1
20260504004346 76 28 2.0 6.0 0.00 0.00 0.00 20 1014.1
20260504004036 77 28 2.0 6.0 0.00 0.00 0.00 20 1014.2
20260504003737 77 28 3.0 6.0 0.00 0.00 0.00 19 1014.1
20260504003424 78 28 3.0 9.0 0.00 0.00 0.00 19 1014.1
20260504003123 78 28 4.0 9.0 0.00 0.00 0.00 19 1014.1
20260504002354 79 28 5.0 9.0 0.00 0.00 0.00 17 1014.3
20260504001639 79 26 5.0 9.0 0.00 0.00 0.00 18 1014.3
20260504001332 79 25 5.0 8.0 0.00 0.00 0.00 19 1014.3
20260504001030 79 24 5.0 9.0 0.00 0.00 0.00 19 1014.3
20260504000722 79 24 4.0 9.0 0.00 0.00 0.00 18 1014.3
20260504000425 79 24 4.0 9.0 0.00 0.00 0.00 18 1014.4
20260504000128 80 24 4.0 9.0 0.00 0.00 0.00 18 1014.3
20260503235409 81 24 6.0 15.0 0.00 0.00 0.00 16 1014.4
20260503235112 81 24 6.0 15.0 0.00 0.00 0.00 16 1014.4
20260503234802 81 24 8.0 15.0 0.00 0.00 0.00 17 1014.4
20260503234504 81 24 7.0 15.0 0.00 0.00 0.00 17 1014.4
20260503234151 81 24 7.0 15.0 0.00 0.00 0.00 17 1014.5
20260503233847 81 28 6.0 13.0 0.00 0.00 0.00 18 1014.5
20260503233547 80 28 6.0 13.0 0.00 0.00 0.00 18 1014.5
20260503232831 79 24 4.0 7.0 0.00 0.00 0.00 18 1014.4
20260503232529 79 24 5.0 12.0 0.00 0.00 0.00 18 1014.5
20260503232223 79 24 5.0 12.0 0.00 0.00 0.00 18 1014.5
20260503231913 79 24 6.0 12.0 0.00 0.00 0.00 17 1014.5
20260503231138 80 27 8.0 13.0 0.00 0.00 0.00 17 1014.5
20260503230832 80 32 8.0 13.0 0.00 0.00 0.00 17 1014.5
20260503230520 80 29 8.0 17.0 0.00 0.00 0.00 17 1014.5
20260503230216 80 22 7.0 17.0 0.00 0.00 0.00 17 1014.5
20260503225917 81 24 7.0 17.0 0.00 0.00 0.00 17 1014.5
20260503225615 81 19 9.0 17.0 0.00 0.00 0.00 17 1014.5
20260503225319 81 11 9.0 17.0 0.00 0.00 0.00 17 1014.6
20260503225004 81 9 8.0 17.0 0.00 0.00 0.00 18 1014.5
20260503224658 81 36 6.0 12.0 0.00 0.00 0.00 18 1014.6
20260503224357 81 40 5.0 10.0 0.00 0.00 0.00 17 1014.6
20260503224056 81 31 5.0 9.0 0.00 0.00 0.00 17 1014.7
20260503223758 81 28 5.0 9.0 0.00 0.00 0.00 18 1014.6
20260503223501 81 28 6.0 9.0 0.00 0.00 0.00 18 1014.6
20260503223154 81 28 6.0 12.0 0.00 0.00 0.00 17 1014.8
20260503222840 81 28 7.0 12.0 0.00 0.00 0.00 17 1014.8
20260503222532 81 28 7.0 12.0 0.00 0.00 0.00 17 1014.8
20260503222227 81 29 7.0 13.0 0.00 0.00 0.00 17 1014.9
20260503221928 81 28 8.0 13.0 0.00 0.00 0.00 17 1015.0
20260503221631 81 30 8.0 13.0 0.00 0.00 0.00 17 1015.0
20260503221320 82 31 8.0 13.0 0.00 0.00 0.00 16 1015.1
20260503221015 82 32 8.0 13.0 0.00 0.00 0.00 17 1015.2
20260503220706 81 36 8.0 13.0 0.00 0.00 0.00 17 1015.2
20260503220358 81 32 8.0 13.0 0.00 0.00 0.00 17 1015.2
20260503220050 81 30 8.0 14.0 0.00 0.00 0.00 18 1015.3
20260503215738 81 28 8.0 14.0 0.00 0.00 0.00 18 1015.3
20260503215430 80 22 9.0 14.0 0.00 0.00 0.00 18 1015.3
20260503215117 80 21 9.0 14.0 0.00 0.00 0.00 18 1015.3
20260503214821 80 21 9.0 14.0 0.00 0.00 0.00 17 1015.4
20260503214510 80 28 8.0 14.0 0.00 0.00 0.00 17 1015.4
20260503214206 80 28 7.0 14.0 0.00 0.00 0.00 18 1015.4